Flight Track Log - Related Links

Times and Time Zones

All times are in EDT time to prevent confusion due to time zone crossing. See the UAL6008 flight status page for this flight to view local times or setup timezone preferences in your user account.

Time Position Orientation Groundspeed Altitude Reporting Facility
EDT Latitude Longitude Course Direction KTS MPH feet Rate Location/Type
Sun 02:29:39 PM 41.9500 -87.9167 260° West 181 208 2,200  Level Chicago TRACON
Sun 02:30:39 PM 41.9333 -88.0000 255° West 242 278 4,400 2,466 Climbing Chicago TRACON
Sun 02:32:22 PM 41.9425 -88.1331 275° West 237 273 8,900 2,800 Climbing Chicago Center
Sun 02:33:24 PM 41.9378 -88.2400 267° West 240 276 12,100 2,468 Climbing Chicago Center
Sun 02:34:00 PM 41.8032 -88.4121 254° West  Level Estimated
Sun 02:34:26 PM 41.9175 -88.3339 254° West 266 306 14,000  Level Chicago Center
Sun 02:35:00 PM 41.7887 -88.5221 260° West  Level FlightAware Approximate
Sun 02:35:28 PM 41.8931 -88.4339 252° West 282 325 16,100  Level Chicago Center
Sun 02:36:30 PM 41.8683 -88.5306 251° West 278 320 18,000 1,452 Climbing Chicago Center
Sun 02:37:32 PM 41.8447 -88.6264 252° West 275 316 19,100 864 Climbing Chicago Center
Sun 02:38:35 PM 41.8117 -88.7583 251° West 308 354 19,800 1,056 Climbing Chicago Center
Sun 02:39:37 PM 41.7817 -88.8775 251° West 334 384 21,300 1,694 Climbing Chicago Center
Sun 02:40:39 PM 41.7522 -88.9936 251° West 335 386 23,300 1,790 Climbing Chicago Center
Sun 02:41:41 PM 41.7239 -89.1056 251° West 325 374 25,000 1,597 Climbing Chicago Center
Sun 02:42:43 PM 41.6958 -89.2147 251° West 317 365 26,600 1,645 Climbing Chicago Center
Sun 02:43:45 PM 41.6611 -89.3472 251° West 317 365 28,400 1,645 Climbing Chicago Center
Sun 02:44:47 PM 41.6239 -89.4542 245° Southwest 327 376 30,000 1,597 Climbing Chicago Center
Sun 02:45:49 PM 41.5797 -89.5539 239° Southwest 322 371 31,700 1,694 Climbing Chicago Center
Sun 02:46:51 PM 41.5353 -89.6558 240° Southwest 320 368 33,500 1,597 Climbing Chicago Center
Sun 02:47:53 PM 41.4931 -89.7503 239° Southwest 312 359 35,000 1,210 Climbing Chicago Center
Sun 02:48:55 PM 41.4425 -89.8575 238° Southwest 295 339 36,000 484 Climbing Chicago Center
Sun 02:49:57 PM 41.3972 -89.9553 238° Southwest 302 348 36,000  Level Chicago Center
Sun 02:51:00 PM 41.3478 -90.0628 239° Southwest 327 376 36,000  Level Chicago Center
Sun 02:52:02 PM 41.2947 -90.1789 239° Southwest 354 407 36,000  Level Chicago Center
Sun 02:53:04 PM 41.2378 -90.3014 238° Southwest 380 437 36,000  Level Chicago Center
Sun 02:54:06 PM 41.1814 -90.4231 238° Southwest 388 447 36,000  Level Chicago Center
Sun 02:55:08 PM 41.1128 -90.5694 238° Southwest 390 449 36,000  Level Chicago Center
Sun 02:56:10 PM 41.0553 -90.6914 238° Southwest 392 451 36,000  Level Chicago Center
Sun 02:57:12 PM 40.9978 -90.8153 238° Southwest 394 453 36,000  Level Chicago Center
Sun 02:58:14 PM 40.9392 -90.9394 238° Southwest 399 459 36,000  Level Chicago Center
Sun 02:59:16 PM 40.8808 -91.0619 238° Southwest 397 457 36,000  Level Chicago Center
Sun 03:00:18 PM 40.8092 -91.2117 238° Southwest 400 460 36,000  Level Chicago Center
Sun 03:01:20 PM 40.7503 -91.3358 238° Southwest 403 464 36,000  Level Chicago Center
Sun 03:02:22 PM 40.6894 -91.4617 238° Southwest 408 470 36,000  Level Chicago Center
Sun 03:03:24 PM 40.6336 -91.5922 241° Southwest 412 474 36,000  Level Chicago Center
Sun 03:04:07 PM 40.5889 -91.6939 240° Southwest 409 471 36,000  Level Kansas City Center
Sun 03:05:11 PM 40.5353 -91.8211 241° Southwest 404 465 36,000  Level Kansas City Center
Sun 03:06:13 PM 40.4814 -91.9483 241° Southwest 402 463 36,000  Level Kansas City Center
Sun 03:07:14 PM 40.4269 -92.0756 241° Southwest 402 463 36,000  Level Kansas City Center
Sun 03:08:17 PM 40.3725 -92.2025 241° Southwest 402 463 36,000  Level Kansas City Center
Sun 03:09:18 PM 40.3117 -92.3422 240° Southwest 405 466 36,000 -290 Level Kansas City Center
Sun 03:10:21 PM 40.2478 -92.4864 240° Southwest 409 471 35,400 -1,024 Descending Kansas City Center
Sun 03:11:21 PM 40.1939 -92.6128 241° Southwest 413 475 33,900 -2,083 Descending Kansas City Center
Sun 03:12:22 PM 40.1297 -92.7586 240° Southwest 415 478 31,200 -2,352 Descending Kansas City Center
Sun 03:13:26 PM 40.0750 -92.8819 240° Southwest 411 473 29,000 -2,177 Descending Kansas City Center
Sun 03:14:26 PM 40.0175 -93.0136 240° Southwest 414 476 26,700 -2,160 Descending Kansas City Center
Sun 03:15:31 PM 39.9592 -93.1439 240° Southwest 417 480 24,500 -2,304 Descending Kansas City Center
Sun 03:16:31 PM 39.8897 -93.2967 239° Southwest 414 476 21,900 -2,311 Descending Kansas City Center
Sun 03:17:33 PM 39.8364 -93.4192 240° Southwest 399 459 19,800 -1,968 Descending Kansas City Center
Sun 03:18:36 PM 39.7822 -93.5356 239° Southwest 386 444 17,800 -1,905 Descending Kansas City Center
Sun 03:19:39 PM 39.7325 -93.6508 241° Southwest 371 427 15,800 -1,935 Descending Kansas City Center
Sun 03:20:40 PM 39.6819 -93.7594 239° Southwest 349 402 13,800 -1,820 Descending Kansas City Center
Sun 03:21:41 PM 39.6289 -93.8786 240° Southwest 342 394 12,100 -1,065 Descending Kansas City Center
Sun 03:22:44 PM 39.5808 -93.9739 237° Southwest 332 382 11,600 -968 Descending Kansas City Center
Sun 03:23:45 PM 39.5331 -94.0683 237° Southwest 274 315 10,100 -1,392 Descending Kansas City Center
Sun 03:24:49 PM 39.5181 -94.1525 257° West 251 289 8,700 -1,258 Descending Kansas City Center
Sun 03:25:49 PM 39.5000 -94.2497 256° West 246 283 7,500 -823 Descending Kansas City Center
Sun 03:26:53 PM 39.4842 -94.3300 256° West 241 277 7,000 -242 Descending Kansas City Center
Sun 03:27:53 PM 39.4644 -94.4256 255° West 244 281 7,000 -194 Level Kansas City Center
Sun 03:28:57 PM 39.4489 -94.5064 256° West 246 283 6,600 -774 Descending Kansas City Center
Sun 03:29:57 PM 39.4306 -94.6003 256° West 242 278 5,400 -1,500 Descending Kansas City Center
Sun 03:30:57 PM 39.4008 -94.6661 240° Southwest 220 253 3,600 -1,548 Descending Kansas City Center
Sun 03:32:01 PM 39.3539 -94.6878 200° South 188 216 2,200 -1,200 Descending Kansas City Center
Sun 03:33:02 PM 39.3097 -94.7011 193° South 149 171 1,100 -1,082 Descending Kansas City Center

Login

Don't have an account? Register now (free) for customized features, flight alerts, and more!